QPF
0.00 0.00 0.00 0.00 0.00 0.00 0.00 0.00 0.00 0.00 0.00 0.00 0.00 0.00 0.00 0.00 0.00 0.00 0.00 0.00 0.00 0.00 0.00 0.00 0.00 0.00 0.00 0.00 0.00 0.00 0.00 0.00 0.00 0.00 0.00 0.00 0.00 0.00 0.00 0.00 0.00 0.00 0.00 0.00 0.00 0.00 0.01 0.01 0.00
0.00 0.00 0.00 0.00 0.00 0.00 0.00 0.00 0.00 0.00 0.00 0.00 0.00 0.00 0.00 0.00 0.00 0.00 0.00 0.00 0.00 0.00 0.00 0.00 0.00 0.00 0.00 0.00 0.00 0.00 0.00 0.00 0.00 0.00 0.00 0.00 0.00 0.00 0.00 0.00 0.00 0.00 0.00 0.00 0.00 0.01 0.01 0.01 0.00
0.00 0.00 0.00 0.00 0.00 0.00 0.00 0.00 0.00 0.00 0.00 0.00 0.00 0.00 0.00 0.00 0.00 0.00 0.00 0.00 0.00 0.00 0.00 0.00 0.00 0.00 0.00 0.00 0.00 0.00 0.00 0.00 0.00 0.00 0.00 0.00 0.00 0.00 0.00 0.00 0.00 0.00 0.00 0.00 0.01 0.02 0.02 0.01 0.00
0.00 0.00 0.00 0.00 0.00 0.00 0.00 0.00 0.00 0.00 0.00 0.00 0.00 0.00 0.00 0.00 0.00 0.00 0.00 0.00 0.00 0.00 0.00 0.00 0.00 0.00 0.00 0.00 0.00 0.00 0.00 0.00 0.00 0.00 0.00 0.00 0.00 0.00 0.00 0.00 0.00 0.00 0.00 0.01 0.02 0.02 0.02 0.00 0.00
0.00 0.00 0.00 0.00 0.00 0.00 0.00 0.00 0.00 0.00 0.00 0.00 0.00 0.00 0.00 0.00 0.00 0.00 0.00 0.00 0.00 0.00 0.00 0.00 0.00 0.00 0.00 0.01 0.01 0.00 0.00 0.00 0.00 0.00 0.00 0.00 0.00 0.00 0.00 0.00 0.00 0.01 0.01 0.02 0.01 0.02 0.02 0.01 0.00
0.00 0.00 0.00 0.00 0.00 0.00 0.00 0.00 0.00 0.00 0.00 0.00 0.00 0.00 0.00 0.00 0.00 0.00 0.00 0.00 0.00 0.00 0.00 0.00 0.00 0.00 0.01 0.01 0.13 0.26 0.16 0.05 0.05 0.02 0.03 0.02 0.00 0.00 0.00 0.00 0.00 0.01 0.00 0.01 0.01 0.00 0.00 0.00 0.00
0.00 0.00 0.00 0.00 0.00 0.00 0.00 0.00 0.00 0.00 0.00 0.00 0.00 0.00 0.00 0.00 0.00 0.00 0.00 0.00 0.00 0.00 0.00 0.00 0.02 0.12 0.09 0.08 0.13 0.31 0.60 0.45 0.31 0.26 0.33 0.38 0.23 0.09 0.02 0.00 0.00 0.00 0.00 0.00 0.00 0.00 0.00 0.00 0.00
0.00 0.00 0.00 0.00 0.00 0.00 0.00 0.00 0.00 0.00 0.00 0.00 0.00 0.00 0.00 0.00 0.00 0.00 0.00 0.00 0.00 0.00 0.00 0.00 0.01 0.03 0.05 0.05 0.04 0.06 0.20 0.13 0.13 0.12 0.16 0.21 0.26 0.33 0.16 0.04 0.01 0.00 0.00 0.00 0.00 0.00 0.00 0.00 0.00
0.00 0.00 0.00 0.00 0.00 0.00 0.00 0.00 0.00 0.00 0.00 0.00 0.00 0.00 0.00 0.00 0.00 0.00 0.00 0.00 0.00 0.00 0.00 0.00 0.00 0.00 0.00 0.00 0.01 0.03 0.13 0.08 0.07 0.07 0.06 0.03 0.10 0.34 0.28 0.10 0.02 0.00 0.00 0.00 0.00 0.00 0.00 0.00 0.00
0.00 0.00 0.00 0.00 0.00 0.00 0.00 0.00 0.00 0.00 0.00 0.00 0.00 0.00 0.00 0.00 0.00 0.00 0.00 0.00 0.00 0.00 0.00 0.00 0.00 0.00 0.00 0.00 0.00 0.00 0.04 0.07 0.13 0.10 0.02 0.00 0.01 0.18 0.24 0.13 0.01 0.00 0.00 0.00 0.00 0.00 0.00 0.00 0.00
0.00 0.00 0.00 0.00 0.00 0.00 0.00 0.00 0.00 0.00 0.00 0.00 0.00 0.00 0.00 0.00 0.00 0.00 0.00 0.00 0.00 0.00 0.00 0.00 0.00 0.00 0.00 0.00 0.00 0.01 0.02 0.05 0.10 0.08 0.02 0.00 0.00 0.09 0.17 0.11 0.01 0.00 0.00 0.00 0.00 0.00 0.00 0.00 0.00
0.00 0.00 0.00 0.00 0.00 0.00 0.00 0.00 0.00 0.00 0.00 0.00 0.00 0.00 0.00 0.00 0.00 0.00 0.00 0.00 0.00 0.00 0.00 0.00 0.00 0.00 0.00 0.00 0.00 0.01 0.01 0.03 0.03 0.05 0.01 0.00 0.01 0.03 0.05 0.05 0.00 0.00 0.00 0.00 0.00 0.00 0.00 0.00 0.00
0.00 0.00 0.00 0.00 0.00 0.00 0.00 0.00 0.00 0.00 0.00 0.00 0.00 0.00 0.00 0.00 0.00 0.00 0.00 0.00 0.00 0.00 0.00 0.00 0.00 0.00 0.00 0.00 0.00 0.00 0.00 0.00 0.01 0.04 0.01 0.01 0.01 0.01 0.01 0.01 0.00 0.00 0.00 0.00 0.00 0.00 0.00 0.00 0.00
0.00 0.00 0.00 0.00 0.00 0.00 0.00 0.00 0.00 0.00 0.00 0.00 0.00 0.00 0.00 0.00 0.00 0.00 0.00 0.00 0.00 0.00 0.00 0.00 0.00 0.00 0.00 0.00 0.00 0.00 0.00 0.01 0.00 0.01 0.01 0.03 0.02 0.00 0.00 0.00 0.00 0.00 0.00 0.00 0.00 0.00 0.00 0.00 0.00
0.00 0.00 0.00 0.00 0.00 0.00 0.00 0.00 0.00 0.00 0.00 0.00 0.00 0.00 0.00 0.00 0.00 0.00 0.00 0.00 0.00 0.00 0.00 0.00 0.00 0.00 0.01 0.00 0.00 0.00 0.00 0.00 0.00 0.02 0.02 0.03 0.02 0.00 0.00 0.00 0.00 0.00 0.00 0.00 0.00 0.00 0.00 0.00 0.00
0.00 0.00 0.00 0.00 0.00 0.00 0.00 0.00 0.00 0.00 0.00 0.00 0.00 0.00 0.00 0.00 0.00 0.00 0.00 0.00 0.00 0.00 0.00 0.00 0.00 0.00 0.00 0.00 0.00 0.00 0.00 0.00 0.00 0.02 0.02 0.02 0.01 0.00 0.00 0.00 0.00 0.00 0.00 0.00 0.00 0.00 0.00 0.00 0.00
0.00 0.00 0.00 0.00 0.00 0.00 0.00 0.00 0.00 0.00 0.00 0.00 0.00 0.00 0.00 0.00 0.00 0.00 0.00 0.00 0.00 0.00 0.00 0.00 0.00 0.00 0.00 0.00 0.00 0.00 0.00 0.00 0.00 0.01 0.01 0.01 0.01 0.00 0.00 0.00 0.00 0.00 0.00 0.00 0.00 0.00 0.00 0.00 0.00
0.00 0.00 0.00 0.00 0.00 0.00 0.00 0.00 0.00 0.00 0.00 0.00 0.00 0.00 0.00 0.00 0.00 0.00 0.00 0.00 0.00 0.00 0.00 0.00 0.00 0.00 0.00 0.00 0.00 0.00 0.00 0.00 0.00 0.01 0.01 0.00 0.01 0.00 0.00 0.00 0.00 0.00 0.00 0.00 0.00 0.00 0.00 0.00 0.00
0.00 0.00 0.00 0.00 0.00 0.00 0.00 0.00 0.00 0.00 0.00 0.00 0.00 0.00 0.00 0.00 0.00 0.00 0.00 0.00 0.00 0.00 0.00 0.00 0.00 0.00 0.00 0.00 0.00 0.00 0.00 0.00 0.00 0.00 0.00 0.00 0.00 0.01 0.00 0.00 0.00 0.00 0.00 0.00 0.00 0.00 0.00 0.00 0.00
0.00 0.00 0.00 0.00 0.00 0.00 0.00 0.00 0.00 0.00 0.00 0.00 0.00 0.00 0.00 0.00 0.00 0.00 0.00 0.00 0.00 0.00 0.00 0.00 0.00 0.00 0.00 0.00 0.00 0.00 0.00 0.00 0.00 0.00 0.00 0.00 0.00 0.01 0.01 0.00 0.00 0.00 0.00 0.00 0.00 0.00 0.00 0.00 0.00
0.00 0.00 0.00 0.00 0.00 0.00 0.00 0.00 0.00 0.00 0.00 0.00 0.00 0.00 0.00 0.00 0.00 0.00 0.00 0.00 0.00 0.00 0.00 0.00 0.00 0.00 0.00 0.00 0.00 0.00 0.00 0.00 0.00 0.01 0.00 0.00 0.00 0.01 0.01 0.01 0.00 0.00 0.00 0.00 0.00 0.00 0.00 0.00 0.00
0.00 0.00 0.00 0.00 0.00 0.00 0.00 0.00 0.00 0.00 0.00 0.00 0.00 0.00 0.00 0.00 0.00 0.00 0.00 0.00 0.00 0.00 0.00 0.00 0.00 0.00 0.00 0.00 0.00 0.00 0.00 0.00 0.00 0.00 0.00 0.00 0.00 0.00 0.00 0.01 0.01 0.00 0.00 0.00 0.00 0.00 0.00 0.00 0.00
0.00 0.00 0.00 0.00 0.00 0.00 0.00 0.00 0.00 0.00 0.00 0.00 0.00 0.00 0.00 0.00 0.00 0.00 0.00 0.00 0.00 0.00 0.00 0.00 0.00 0.00 0.00 0.00 0.00 0.00 0.00 0.00 0.00 0.00 0.00 0.00 0.00 0.00 0.00 0.00 0.01 0.00 0.01 0.01 0.01 0.00 0.00 0.00 0.00
0.00 0.00 0.00 0.00 0.00 0.00 0.00 0.00 0.00 0.00 0.00 0.00 0.00 0.00 0.00 0.00 0.00 0.00 0.00 0.00 0.00 0.00 0.00 0.00 0.00 0.00 0.00 0.00 0.00 0.00 0.00 0.00 0.00 0.00 0.00 0.00 0.00 0.00 0.00 0.00 0.01 0.01 0.00 0.01 0.02 0.01 0.00 0.00 0.00
0.01 0.01 0.00 0.00 0.00 0.00 0.00 0.00 0.00 0.00 0.00 0.00 0.00 0.00 0.00 0.00 0.00 0.00 0.00 0.00 0.00 0.00 0.00 0.00 0.00 0.00 0.00 0.00 0.00 0.00 0.00 0.00 0.00 0.00 0.00 0.00 0.00 0.00 0.00 0.00 0.00 0.00 0.00 0.00 0.01 0.01 0.00 0.00 0.00
0.00 0.01 0.00 0.00 0.00 0.00 0.00 0.00 0.00 0.00 0.00 0.00 0.00 0.00 0.00 0.00 0.00 0.00 0.00 0.00 0.00 0.00 0.00 0.00 0.00 0.00 0.00 0.00 0.00 0.00 0.00 0.00 0.00 0.00 0.00 0.00 0.00 0.00 0.00 0.00 0.00 0.00 0.00 0.00 0.00 0.00 0.00 0.00 0.00
0.00 0.01 0.00 0.00 0.00 0.00 0.00 0.00 0.00 0.00 0.00 0.00 0.00 0.00 0.00 0.00 0.00 0.00 0.00 0.00 0.00 0.00 0.00 0.00 0.00 0.00 0.00 0.00 0.00 0.00 0.00 0.00 0.00 0.00 0.00 0.00 0.00 0.00 0.00 0.00 0.00 0.00 0.00 0.00 0.00 0.00 0.00 0.00 0.00
0.00 0.01 0.00 0.00 0.00 0.00 0.00 0.00 0.00 0.00 0.00 0.00 0.00 0.00 0.00 0.00 0.00 0.00 0.00 0.00 0.00 0.00 0.00 0.00 0.00 0.00 0.00 0.00 0.00 0.00 0.00 0.00 0.00 0.00 0.00 0.00 0.00 0.00 0.00 0.00 0.00 0.00 0.00 0.00 0.00 0.00 0.00 0.00 0.00
0.00 0.01 0.00 0.00 0.00 0.00 0.01 0.02 0.00 0.00 0.00 0.00 0.00 0.00 0.00 0.00 0.00 0.00 0.00 0.00 0.00 0.00 0.00 0.00 0.00 0.00 0.00 0.00 0.00 0.00 0.00 0.00 0.00 0.00 0.00 0.00 0.00 0.00 0.00 0.00 0.00 0.00 0.00 0.00 0.00 0.00 0.00 0.00 0.00
0.00 0.00 0.00 0.00 0.00 0.00 0.00 0.00 0.00 0.00 0.00 0.00 0.00 0.00 0.00 0.00 0.00 0.00 0.00 0.00 0.00 0.01 0.01 0.01 0.00 0.00 0.00 0.01 0.00 0.00 0.00 0.00 0.00 0.00 0.00 0.00 0.00 0.00 0.00 0.00 0.00 0.00 0.00 0.00 0.00 0.00 0.00 0.00 0.00
MSLP
1010.38 1010.54 1010.84 1011.28 1012.91 1013.74 1013.13 1011.50 1009.72 1008.20 1006.87 1005.51 1005.03 1005.29 1005.48 1005.68 1005.96 1006.87 1006.50 1006.57 1006.94 1007.28 1007.45 1007.69 1008.01 1008.30 1008.68 1009.11 1009.29 1009.20 1009.04 1009.25 1009.97 1010.47 1010.58 1010.67 1010.81 1011.10 1011.56 1012.05 1012.44 1012.80 1013.05 1013.45 1013.78 1014.13 1014.59 1015.12 1015.54
1010.44 1010.81 1011.26 1012.29 1013.60 1014.16 1012.45 1010.38 1008.84 1007.36 1006.24 1005.47 1005.15 1005.28 1005.44 1005.55 1005.66 1006.06 1006.50 1006.37 1006.70 1007.09 1007.37 1007.57 1007.79 1008.17 1008.47 1008.80 1009.24 1009.31 1009.38 1009.41 1009.52 1010.24 1010.84 1010.96 1011.06 1011.38 1011.67 1012.08 1012.56 1012.89 1013.27 1013.62 1014.14 1014.46 1014.97 1015.54 1016.02
1010.26 1010.63 1011.89 1012.97 1013.65 1013.08 1011.63 1009.37 1007.91 1006.80 1005.71 1005.73 1005.42 1005.07 1005.01 1005.05 1005.29 1005.57 1005.42 1005.86 1006.62 1007.20 1007.28 1007.50 1007.69 1007.90 1008.15 1008.69 1009.07 1009.29 1009.44 1009.67 1009.87 1010.02 1010.43 1011.10 1011.40 1011.62 1011.88 1012.30 1012.67 1013.07 1013.40 1013.79 1014.10 1014.90 1015.45 1016.04 1016.28
1010.46 1011.36 1012.73 1012.96 1013.04 1011.31 1010.13 1008.33 1007.42 1006.61 1005.67 1005.30 1005.31 1005.10 1005.02 1004.66 1004.78 1005.00 1005.46 1005.93 1006.48 1007.15 1007.28 1007.39 1007.57 1007.79 1008.07 1008.39 1008.85 1009.32 1009.57 1009.83 1010.04 1010.26 1010.38 1010.75 1011.33 1011.83 1012.25 1012.59 1012.93 1013.13 1013.41 1013.92 1014.37 1015.27 1016.02 1016.37 1016.63
1011.01 1012.04 1012.90 1012.90 1011.97 1010.20 1009.18 1008.08 1007.20 1006.83 1006.26 1005.38 1005.38 1005.34 1005.03 1004.68 1004.77 1005.04 1005.38 1005.83 1006.45 1007.02 1007.17 1007.45 1007.68 1007.86 1008.01 1008.31 1008.68 1009.11 1009.57 1009.65 1009.79 1009.96 1010.22 1010.38 1010.96 1011.65 1012.38 1012.78 1012.99 1013.35 1013.67 1014.07 1014.79 1015.71 1016.32 1016.74 1017.00
1011.70 1012.45 1013.09 1012.50 1011.30 1009.63 1008.42 1007.48 1007.01 1006.39 1005.34 1004.93 1005.41 1005.64 1005.42 1005.15 1005.47 1005.85 1005.95 1005.78 1006.30 1007.00 1007.18 1007.44 1007.75 1007.90 1008.06 1008.30 1008.56 1008.75 1009.17 1009.46 1009.68 1009.86 1010.23 1011.21 1010.69 1011.50 1012.30 1012.93 1013.29 1013.77 1014.05 1014.66 1015.37 1016.01 1016.50 1017.00 1017.26
1011.56 1012.50 1012.16 1011.48 1010.54 1009.22 1007.55 1006.71 1006.45 1005.68 1004.36 1004.03 1004.22 1005.86 1005.80 1005.86 1005.87 1006.17 1006.43 1006.23 1006.39 1007.01 1007.23 1007.36 1007.58 1007.89 1008.29 1008.34 1008.46 1008.89 1009.34 1009.63 1009.72 1010.42 1011.01 1011.97 1011.72 1011.81 1012.52 1013.04 1013.47 1013.85 1014.42 1015.18 1015.88 1016.31 1016.73 1017.29 1017.61
1011.23 1011.82 1011.55 1010.79 1010.10 1007.98 1007.06 1006.33 1005.60 1005.52 1004.18 1003.62 1004.11 1005.26 1005.52 1005.36 1005.93 1006.27 1006.74 1006.71 1006.90 1007.21 1007.23 1007.40 1007.72 1007.98 1008.35 1008.41 1008.74 1009.24 1010.16 1010.56 1009.69 1011.57 1011.66 1012.11 1012.78 1013.00 1013.20 1013.68 1014.10 1014.11 1014.65 1015.58 1016.11 1016.62 1016.92 1017.60 1017.91
1010.71 1011.32 1010.72 1009.95 1008.99 1007.58 1006.54 1006.26 1005.20 1004.93 1004.88 1004.84 1004.46 1004.28 1003.97 1004.46 1005.78 1006.54 1006.87 1007.16 1007.48 1007.60 1007.57 1007.67 1007.88 1007.99 1008.29 1008.47 1008.56 1009.12 1009.80 1010.20 1009.99 1011.28 1011.87 1013.12 1013.44 1013.70 1013.54 1014.09 1014.49 1014.66 1014.79 1015.78 1016.38 1016.89 1017.32 1017.95 1018.25
1010.38 1010.27 1009.44 1008.54 1007.93 1007.17 1006.68 1006.37 1005.52 1005.26 1004.91 1004.69 1005.01 1004.63 1004.34 1004.79 1005.72 1006.38 1006.58 1007.10 1007.54 1007.66 1007.73 1007.91 1008.03 1008.18 1008.43 1008.51 1008.90 1009.22 1009.90 1010.50 1011.01 1011.42 1012.03 1012.43 1012.54 1013.66 1014.31 1014.37 1014.65 1015.21 1015.30 1015.87 1016.66 1017.18 1017.63 1018.15 1018.65
1009.33 1008.24 1008.26 1007.72 1007.16 1007.05 1006.55 1005.96 1005.88 1005.41 1004.92 1004.80 1005.15 1004.98 1004.94 1005.30 1005.94 1006.33 1006.35 1006.61 1006.89 1007.37 1007.78 1007.97 1008.09 1008.27 1008.66 1008.94 1009.14 1009.47 1009.80 1010.38 1011.14 1011.36 1011.99 1012.51 1012.34 1013.39 1014.68 1014.91 1015.02 1015.61 1016.14 1015.99 1016.88 1017.57 1017.96 1018.34 1018.83
1009.06 1007.97 1007.73 1007.24 1006.96 1006.89 1006.41 1005.93 1005.25 1005.25 1004.41 1004.26 1004.36 1004.70 1004.80 1005.23 1005.55 1005.87 1006.00 1006.48 1007.10 1007.32 1007.61 1007.90 1008.10 1008.30 1008.55 1008.87 1009.42 1009.65 1009.96 1010.38 1010.93 1011.35 1012.10 1012.51 1012.80 1012.89 1013.88 1014.85 1015.25 1015.77 1016.33 1016.32 1016.96 1017.80 1018.16 1018.46 1018.97
1008.30 1007.71 1007.15 1006.65 1006.58 1006.30 1005.90 1005.55 1005.07 1004.49 1003.76 1003.87 1003.98 1004.40 1004.42 1004.69 1005.14 1005.50 1005.75 1006.11 1006.67 1007.19 1007.44 1007.70 1008.00 1008.29 1008.37 1008.76 1009.37 1009.86 1010.23 1010.52 1010.85 1011.49 1011.87 1012.13 1012.58 1013.21 1013.48 1014.36 1014.99 1015.82 1016.22 1016.46 1017.06 1017.65 1018.03 1018.49 1019.01
1007.30 1006.98 1006.43 1006.06 1005.80 1005.80 1005.65 1004.77 1005.03 1003.65 1003.20 1003.57 1003.97 1004.18 1004.01 1004.27 1004.74 1005.41 1005.82 1006.06 1006.52 1006.83 1007.20 1007.39 1007.82 1007.98 1008.28 1008.64 1009.13 1009.68 1010.10 1010.41 1010.96 1011.30 1011.72 1011.92 1012.33 1012.76 1013.27 1014.15 1014.93 1015.74 1016.17 1016.62 1016.85 1017.58 1018.15 1018.46 1019.16
1006.98 1006.67 1006.05 1005.78 1005.23 1005.06 1005.05 1004.33 1004.28 1003.21 1003.04 1003.24 1003.64 1003.93 1003.86 1003.91 1004.51 1004.53 1004.76 1005.42 1005.92 1006.46 1006.68 1007.18 1007.48 1007.80 1008.09 1008.48 1008.98 1009.47 1009.80 1010.11 1010.70 1011.05 1011.41 1011.57 1011.99 1012.57 1013.01 1013.94 1014.91 1015.56 1016.25 1016.57 1017.29 1017.83 1018.28 1018.78 1019.34
1007.08 1006.47 1006.17 1005.17 1004.99 1004.58 1004.87 1003.48 1003.10 1002.56 1002.44 1002.73 1003.03 1003.44 1003.51 1003.53 1003.43 1004.14 1004.58 1005.04 1005.84 1006.35 1006.61 1007.00 1007.28 1007.74 1008.03 1008.48 1008.91 1009.29 1009.54 1009.87 1010.24 1010.54 1010.89 1011.34 1011.78 1012.44 1012.90 1013.76 1014.64 1015.43 1016.11 1016.15 1017.05 1018.09 1018.62 1018.90 1019.26
1007.41 1006.79 1006.17 1005.46 1004.59 1004.49 1004.35 1003.44 1002.39 1001.97 1002.15 1002.19 1002.55 1002.85 1002.92 1003.07 1003.47 1003.85 1004.50 1005.04 1005.81 1006.10 1006.36 1006.91 1007.22 1007.62 1007.99 1008.53 1008.93 1009.32 1009.65 1009.91 1010.10 1010.24 1009.88 1010.53 1011.56 1012.38 1013.09 1013.79 1014.50 1015.14 1015.69 1016.01 1016.85 1017.71 1018.52 1018.94 1019.47
1008.04 1007.21 1006.35 1005.43 1004.72 1004.38 1004.26 1003.40 1002.22 1001.86 1001.81 1001.49 1001.87 1002.28 1002.57 1002.66 1002.43 1003.09 1004.23 1005.11 1005.69 1006.10 1006.37 1006.75 1007.17 1007.56 1007.96 1008.49 1009.01 1009.48 1009.82 1010.15 1010.22 1010.31 1010.43 1010.74 1011.79 1012.72 1013.39 1013.83 1014.46 1015.05 1015.80 1016.48 1016.85 1017.46 1018.41 1018.70 1019.59
1008.00 1007.24 1006.42 1005.58 1004.87 1004.78 1004.19 1003.42 1002.14 1001.58 1001.38 1001.11 1001.26 1001.22 1001.94 1002.05 1001.51 1002.96 1004.09 1005.07 1005.71 1006.23 1006.44 1006.71 1007.06 1007.46 1007.87 1008.36 1008.94 1009.44 1009.72 1010.21 1010.53 1010.81 1010.98 1011.38 1011.89 1012.58 1013.10 1013.84 1014.66 1015.20 1015.91 1016.28 1016.90 1017.42 1018.07 1019.10 1019.44
1007.98 1007.23 1006.06 1005.21 1004.78 1004.51 1004.09 1003.19 1001.80 1001.07 1000.79 1000.37 1000.02 1000.12 1000.81 1001.37 1002.21 1002.95 1003.92 1004.97 1005.41 1005.92 1006.31 1006.60 1007.01 1007.35 1007.74 1008.11 1008.67 1009.25 1009.75 1010.14 1010.59 1011.08 1011.30 1011.55 1012.11 1012.52 1013.05 1013.76 1014.45 1015.15 1015.88 1016.36 1016.70 1016.98 1017.93 1018.75 1019.12
1007.68 1007.11 1006.26 1005.47 1005.28 1004.73 1004.24 1002.88 1001.48 1000.10 999.93 999.46 999.09 999.17 999.64 1000.18 1001.22 1002.53 1003.44 1004.36 1005.15 1005.64 1006.02 1006.35 1006.78 1007.29 1007.65 1007.99 1008.61 1009.23 1009.82 1010.33 1010.66 1011.01 1011.46 1011.75 1012.10 1012.57 1012.97 1013.63 1014.23 1015.06 1015.52 1016.07 1016.59 1016.92 1017.39 1018.17 1019.11
1007.01 1006.68 1006.24 1005.68 1005.58 1004.94 1004.11 1002.99 1001.45 1000.31 999.48 998.90 998.86 999.22 999.41 999.83 1000.42 1001.55 1002.76 1003.80 1004.36 1004.98 1005.85 1006.27 1006.77 1007.16 1007.60 1007.94 1008.39 1008.95 1009.40 1009.88 1010.14 1010.56 1011.19 1011.55 1011.87 1012.36 1012.82 1013.56 1014.07 1014.78 1015.42 1015.94 1016.45 1016.90 1017.12 1017.61 1018.38
1006.69 1006.49 1006.36 1005.89 1005.66 1005.33 1004.45 1003.79 1000.85 1000.12 999.39 998.71 998.75 998.74 998.99 998.91 999.52 1000.72 1001.58 1002.53 1003.80 1004.67 1005.43 1006.16 1006.83 1007.26 1007.43 1007.80 1008.16 1008.83 1009.38 1009.83 1010.14 1010.49 1010.94 1011.53 1011.72 1012.27 1012.71 1013.52 1014.07 1014.76 1015.20 1015.84 1016.08 1016.71 1016.90 1017.19 1017.67
1006.94 1006.88 1006.65 1006.26 1005.97 1005.11 1004.06 1003.44 1000.65 999.91 998.97 998.07 997.78 997.91 998.25 998.32 999.01 999.98 1001.52 1002.64 1003.78 1004.67 1005.38 1006.10 1006.61 1007.15 1007.36 1007.67 1008.11 1008.64 1009.24 1009.82 1010.15 1010.56 1010.83 1011.25 1011.54 1012.25 1012.86 1013.43 1013.95 1014.28 1014.85 1015.31 1015.76 1016.23 1016.66 1016.94 1017.17
1007.21 1007.67 1007.08 1006.77 1006.03 1004.38 1003.16 1002.59 1000.23 999.61 998.79 998.08 997.52 997.20 997.54 997.74 998.75 1000.07 1001.04 1002.13 1003.31 1004.14 1004.93 1005.79 1006.40 1006.93 1007.34 1007.61 1008.09 1008.61 1009.04 1009.56 1009.96 1010.21 1010.52 1010.98 1011.39 1011.89 1012.67 1013.14 1013.67 1013.94 1014.22 1014.66 1015.26 1016.21 1016.45 1016.90 1017.12
1006.65 1007.65 1007.29 1006.45 1005.57 1004.62 1003.32 1001.51 1000.14 999.26 998.56 997.92 997.03 996.55 996.25 997.25 997.86 998.80 999.96 1001.25 1002.42 1003.55 1004.49 1005.49 1006.14 1006.65 1007.22 1007.61 1007.93 1008.33 1008.70 1009.03 1009.75 1010.15 1010.49 1010.82 1011.17 1011.47 1012.06 1012.56 1013.16 1013.79 1014.02 1014.65 1015.19 1016.01 1016.29 1016.79 1017.11
1006.97 1007.10 1007.61 1007.04 1006.33 1005.24 1003.42 1001.41 999.84 999.52 999.05 998.35 997.48 996.62 996.31 996.55 997.02 998.30 999.76 1000.82 1001.90 1002.97 1003.88 1004.74 1005.69 1006.34 1006.82 1007.26 1007.69 1008.11 1008.52 1009.03 1009.23 1009.78 1010.38 1010.58 1010.94 1011.38 1011.96 1012.49 1013.07 1013.51 1014.00 1014.45 1014.96 1015.67 1016.21 1016.71 1016.82
1007.10 1007.23 1007.57 1007.21 1006.55 1005.49 1003.55 1002.43 1002.10 1001.24 1000.49 1000.12 999.36 998.35 997.39 997.42 998.13 999.00 999.95 1000.92 1002.10 1003.19 1004.22 1005.27 1005.94 1006.49 1007.07 1007.58 1007.92 1008.19 1008.52 1008.88 1009.33 1009.73 1010.16 1010.63 1010.93 1011.19 1011.69 1012.27 1012.66 1013.16 1013.73 1014.13 1014.59 1015.12 1015.41 1015.74 1015.81
1006.95 1006.91 1007.17 1006.92 1006.51 1005.38 1004.27 1003.50 1002.93 1002.84 1002.16 1001.56 1000.99 999.82 998.66 998.65 999.42 1000.12 1000.78 1001.80 1002.81 1003.71 1004.61 1005.43 1006.13 1006.81 1007.36 1007.78 1008.09 1008.42 1008.65 1009.04 1009.40 1009.74 1010.05 1010.27 1010.83 1011.34 1011.58 1011.77 1012.23 1012.67 1013.14 1013.62 1014.10 1014.46 1014.72 1014.94 1015.01
1005.47 1006.39 1006.66 1006.60 1006.40 1005.81 1005.08 1004.05 1003.41 1003.35 1002.80 1002.45 1001.98 1001.41 1000.25 1000.37 1000.55 1001.26 1001.91 1002.56 1003.34 1004.11 1004.86 1005.42 1006.08 1006.55 1007.02 1007.38 1007.75 1008.04 1008.37 1008.74 1009.18 1009.54 1009.81 1010.15 1010.43 1010.75 1011.17 1011.70 1012.00 1012.14 1012.34 1012.74 1013.14 1013.40 1013.53 1013.76 1013.96
Thickness
5723 5721 5718 5709 5679 5664 5665 5682 5703 5711 5722 5741 5745 5738 5733 5735 5728 5702 5740 5741 5737 5732 5730 5727 5723 5719 5715 5710 5707 5707 5706 5704 5698 5694 5693 5694 5696 5696 5696 5696 5695 5694 5695 5694 5694 5694 5694 5693 5693
5717 5713 5706 5686 5661 5650 5665 5691 5702 5715 5728 5736 5735 5733 5731 5726 5739 5735 5732 5738 5735 5731 5727 5724 5720 5716 5712 5708 5702 5701 5698 5697 5696 5689 5685 5685 5686 5686 5687 5689 5689 5689 5688 5688 5687 5688 5687 5686 5686
5712 5709 5688 5672 5650 5652 5667 5697 5714 5718 5729 5726 5726 5736 5733 5731 5739 5737 5741 5736 5731 5725 5723 5720 5717 5714 5711 5704 5699 5696 5693 5690 5688 5686 5683 5677 5677 5678 5680 5681 5682 5683 5683 5682 5683 5681 5681 5679 5681
5702 5693 5678 5662 5657 5674 5686 5702 5708 5711 5723 5726 5725 5721 5735 5744 5740 5744 5737 5733 5727 5720 5718 5716 5713 5710 5707 5702 5696 5690 5686 5682 5680 5679 5679 5677 5673 5672 5672 5672 5674 5676 5678 5677 5678 5675 5673 5674 5675
5690 5676 5660 5656 5665 5681 5693 5698 5703 5702 5710 5717 5720 5713 5721 5736 5741 5739 5733 5731 5724 5717 5715 5713 5710 5706 5704 5699 5693 5687 5679 5678 5676 5676 5675 5674 5671 5668 5666 5665 5668 5669 5670 5672 5670 5667 5667 5668 5667
5673 5666 5648 5649 5664 5680 5691 5698 5701 5700 5713 5716 5708 5707 5713 5729 5726 5726 5726 5727 5722 5713 5711 5709 5706 5702 5699 5694 5689 5685 5678 5673 5669 5670 5669 5655 5670 5663 5660 5659 5659 5658 5661 5662 5662 5661 5662 5662 5663
5667 5653 5651 5657 5665 5672 5691 5700 5696 5699 5711 5713 5718 5695 5708 5713 5719 5718 5715 5716 5715 5709 5706 5705 5702 5697 5692 5688 5686 5680 5671 5661 5651 5654 5659 5651 5654 5655 5653 5653 5654 5653 5653 5651 5651 5653 5656 5656 5655
5662 5652 5653 5657 5662 5672 5689 5694 5702 5696 5704 5723 5717 5692 5696 5710 5714 5712 5707 5706 5703 5701 5699 5699 5694 5691 5686 5684 5679 5673 5660 5655 5653 5648 5648 5649 5642 5642 5645 5643 5643 5647 5646 5644 5643 5646 5651 5648 5649
5662 5643 5638 5654 5662 5675 5690 5682 5696 5702 5696 5696 5704 5706 5717 5717 5712 5704 5699 5697 5694 5693 5692 5692 5689 5686 5682 5679 5675 5670 5661 5659 5659 5646 5639 5635 5642 5640 5641 5640 5638 5639 5642 5637 5638 5642 5644 5641 5641
5649 5638 5650 5663 5668 5669 5672 5671 5681 5683 5684 5690 5693 5702 5709 5711 5705 5699 5695 5691 5688 5686 5686 5683 5682 5681 5677 5673 5667 5664 5656 5651 5646 5643 5638 5638 5644 5635 5633 5635 5635 5633 5634 5633 5632 5636 5638 5635 5635
5649 5658 5659 5663 5665 5661 5664 5667 5673 5671 5672 5684 5681 5691 5698 5700 5697 5694 5695 5692 5689 5684 5681 5679 5678 5677 5670 5666 5660 5656 5652 5645 5639 5640 5636 5633 5639 5631 5626 5629 5629 5626 5624 5629 5629 5630 5629 5629 5627
5636 5653 5655 5656 5655 5650 5654 5664 5662 5665 5680 5689 5690 5691 5696 5695 5695 5694 5692 5689 5683 5680 5678 5675 5675 5672 5667 5660 5654 5649 5646 5639 5636 5633 5629 5628 5631 5634 5630 5626 5626 5624 5622 5625 5625 5625 5625 5624 5623
5634 5643 5646 5650 5646 5647 5653 5653 5658 5663 5686 5686 5689 5692 5697 5696 5695 5692 5692 5687 5681 5676 5674 5673 5672 5668 5665 5659 5650 5643 5637 5634 5630 5626 5623 5627 5626 5626 5630 5627 5624 5620 5621 5622 5621 5623 5622 5622 5622
5638 5639 5641 5644 5645 5643 5641 5655 5649 5673 5686 5683 5684 5688 5694 5693 5691 5686 5683 5680 5678 5675 5670 5671 5669 5667 5663 5657 5648 5640 5634 5629 5625 5623 5621 5622 5622 5624 5627 5625 5621 5618 5618 5617 5619 5620 5620 5620 5616
5632 5624 5631 5633 5640 5640 5642 5635 5639 5677 5679 5678 5680 5685 5689 5691 5687 5689 5689 5683 5678 5675 5672 5669 5667 5665 5660 5654 5647 5640 5632 5626 5623 5619 5619 5622 5622 5620 5625 5626 5621 5616 5612 5615 5614 5613 5616 5614 5611
5617 5620 5608 5632 5635 5643 5630 5631 5657 5673 5676 5672 5678 5682 5686 5689 5694 5689 5687 5683 5675 5670 5669 5666 5665 5661 5656 5650 5644 5638 5633 5628 5624 5620 5617 5616 5620 5621 5625 5624 5619 5615 5611 5615 5611 5608 5610 5610 5610
5600 5592 5601 5613 5635 5630 5625 5627 5658 5672 5670 5671 5675 5677 5683 5688 5688 5688 5683 5679 5671 5668 5666 5663 5661 5657 5653 5646 5639 5633 5628 5626 5624 5620 5623 5622 5620 5619 5618 5619 5616 5613 5614 5616 5611 5606 5606 5606 5604
5582 5588 5592 5601 5621 5617 5613 5619 5652 5665 5666 5675 5680 5673 5678 5685 5694 5690 5680 5674 5668 5665 5663 5661 5657 5654 5649 5642 5635 5628 5622 5620 5622 5622 5622 5622 5617 5614 5613 5613 5614 5612 5610 5607 5608 5606 5600 5603 5598
5588 5587 5584 5596 5615 5606 5608 5615 5639 5658 5659 5667 5671 5675 5677 5685 5700 5684 5677 5669 5665 5661 5659 5659 5656 5652 5647 5640 5633 5626 5621 5619 5619 5617 5618 5617 5616 5612 5612 5611 5608 5607 5604 5605 5603 5601 5599 5594 5595
5576 5579 5585 5601 5611 5606 5604 5609 5636 5652 5662 5671 5682 5680 5683 5687 5682 5678 5673 5667 5664 5661 5659 5657 5653 5649 5645 5640 5633 5625 5620 5618 5616 5614 5613 5613 5611 5610 5609 5606 5605 5605 5600 5598 5601 5601 5594 5590 5591
5572 5571 5579 5590 5596 5597 5600 5608 5628 5658 5667 5676 5684 5688 5691 5692 5686 5676 5672 5668 5663 5660 5658 5657 5652 5646 5643 5639 5633 5626 5620 5615 5613 5610 5608 5609 5608 5607 5606 5603 5603 5600 5600 5596 5594 5594 5594 5588 5584
5565 5577 5580 5585 5581 5570 5600 5583 5620 5645 5657 5671 5679 5678 5683 5689 5692 5681 5673 5669 5666 5662 5656 5654 5651 5645 5641 5638 5634 5629 5624 5617 5615 5610 5604 5603 5602 5602 5602 5599 5598 5598 5595 5593 5591 5590 5592 5589 5584
5568 5571 5566 5576 5575 5573 5585 5579 5619 5643 5646 5662 5674 5679 5683 5695 5694 5685 5678 5675 5667 5662 5657 5652 5647 5642 5641 5638 5634 5629 5624 5619 5614 5609 5604 5599 5599 5595 5598 5595 5593 5593 5593 5589 5590 5586 5586 5586 5584
5565 5559 5562 5569 5567 5555 5584 5585 5614 5632 5651 5670 5684 5686 5685 5691 5693 5689 5676 5670 5663 5658 5655 5650 5646 5642 5639 5637 5633 5628 5624 5618 5613 5609 5605 5599 5599 5595 5594 5592 5591 5590 5590 5588 5587 5584 5583 5582 5582
5553 5539 5542 5547 5546 5560 5595 5590 5625 5642 5651 5662 5674 5687 5688 5691 5689 5679 5675 5670 5662 5659 5654 5649 5645 5641 5637 5635 5631 5626 5622 5619 5616 5613 5608 5601 5598 5597 5594 5592 5590 5589 5589 5588 5584 5579 5578 5575 5576
5551 5537 5539 5547 5555 5562 5591 5588 5619 5642 5653 5664 5679 5689 5699 5693 5696 5690 5682 5674 5667 5661 5655 5648 5643 5641 5637 5634 5630 5626 5623 5620 5616 5612 5608 5605 5601 5599 5596 5593 5589 5586 5586 5584 5582 5577 5575 5573 5572
5541 5534 5537 5541 5548 5555 5575 5607 5635 5636 5641 5651 5666 5683 5691 5695 5701 5692 5681 5674 5668 5662 5655 5649 5643 5639 5637 5635 5631 5627 5624 5620 5617 5613 5608 5606 5603 5600 5595 5592 5588 5587 5585 5582 5580 5576 5572 5569 5571
5532 5539 5533 5538 5549 5550 5578 5592 5589 5611 5624 5634 5642 5657 5678 5686 5684 5681 5675 5669 5661 5654 5647 5640 5636 5633 5629 5626 5624 5623 5621 5618 5614 5611 5608 5605 5603 5601 5598 5594 5591 5587 5584 5581 5578 5574 5574 5574 5575
5530 5535 5532 5541 5548 5557 5564 5573 5591 5596 5608 5615 5627 5646 5661 5669 5669 5665 5662 5656 5651 5646 5640 5634 5630 5626 5623 5620 5619 5617 5616 5614 5611 5608 5605 5604 5602 5598 5597 5597 5594 5590 5586 5582 5578 5575 5573 5573 5573
5546 5538 5538 5541 5545 5552 5556 5567 5585 5590 5599 5608 5617 5630 5645 5651 5655 5651 5648 5647 5643 5639 5633 5630 5627 5625 5624 5621 5619 5618 5615 5613 5609 5606 5604 5600 5598 5597 5595 5592 5592 5592 5591 5588 5585 5583 5582 5581 5579